Time,TemperatureF,DewpointF,PressureIn,WindDirection,WindDirectionDegrees,WindSpeedMPH,WindSpeedGustMPH,Humidity,HourlyPrecipIn,Conditions,Clouds,dailyrainin,SoftwareType,DateUTC
2013-11-19 00:00:00,23.5,17.4,29.43,NW,315,0.0,0.0,77,0.00,,---,0.00,VWS V13.01,2013-11-19 06:00:00,
2013-11-19 00:05:00,23.5,17.4,29.43,NW,315,0.0,0.0,77,0.00,,---,0.00,VWS V13.01,2013-11-19 06:05:00,
2013-11-19 00:10:00,23.5,17.4,29.42,NW,315,0.0,0.0,77,0.00,,---,0.00,VWS V13.01,2013-11-19 06:10:00,
2013-11-19 00:15:00,23.5,17.4,29.43,NW,315,0.0,0.0,77,0.00,,---,0.00,VWS V13.01,2013-11-19 06:15:00,
2013-11-19 00:20:00,23.5,17.4,29.43,NW,315,0.0,0.0,77,0.00,,---,0.00,VWS V13.01,2013-11-19 06:20:00,
2013-11-19 00:25:00,23.3,17.2,29.43,NW,315,0.0,0.0,77,0.00,,---,0.00,VWS V13.01,2013-11-19 06:25:00,
2013-11-19 00:30:00,23.3,17.2,29.43,NW,315,0.0,0.0,77,0.00,,---,0.00,VWS V13.01,2013-11-19 06:30:00,
2013-11-19 00:35:00,23.3,17.2,29.43,NW,315,0.0,0.0,77,0.00,,---,0.00,VWS V13.01,2013-11-19 06:35:00,
2013-11-19 00:40:00,23.3,17.5,29.43,NW,315,0.0,0.0,78,0.00,,---,0.00,VWS V13.01,2013-11-19 06:40:00,
2013-11-19 00:45:00,23.1,17.3,29.43,NW,315,0.0,0.0,78,0.00,,---,0.00,VWS V13.01,2013-11-19 06:45:00,
2013-11-19 00:50:00,23.1,17.3,29.43,NW,315,0.0,0.0,78,0.00,,---,0.00,VWS V13.01,2013-11-19 06:50:00,
2013-11-19 00:55:00,23.1,17.3,29.43,NW,315,0.0,0.0,78,0.00,,---,0.00,VWS V13.01,2013-11-19 06:55:00,
2013-11-19 01:00:00,23.1,17.3,29.43,NW,315,0.0,0.0,78,0.00,,---,0.00,VWS V13.01,2013-11-19 07:00:00,
2013-11-19 01:05:00,23.1,17.3,29.43,NW,315,0.0,0.0,78,0.00,,---,0.00,VWS V13.01,2013-11-19 07:05:00,
2013-11-19 01:10:00,23.1,17.3,29.43,NW,315,0.0,0.0,78,0.00,,---,0.00,VWS V13.01,2013-11-19 07:10:00,
2013-11-19 01:15:00,23.0,17.2,29.43,NW,315,0.0,0.0,78,0.00,,---,0.00,VWS V13.01,2013-11-19 07:15:00,
2013-11-19 01:20:00,23.0,17.2,29.43,NW,315,0.0,0.0,78,0.00,,---,0.00,VWS V13.01,2013-11-19 07:20:00,
2013-11-19 01:25:00,22.8,17.0,29.43,NW,315,0.0,0.0,78,0.00,,---,0.00,VWS V13.01,2013-11-19 07:25:00,
2013-11-19 01:30:00,22.8,17.0,29.43,NW,315,0.0,0.0,78,0.00,,---,0.00,VWS V13.01,2013-11-19 07:30:00,
2013-11-19 01:35:00,22.8,17.0,29.43,NW,315,0.0,0.0,78,0.00,,---,0.00,VWS V13.01,2013-11-19 07:35:00,
2013-11-19 01:40:00,22.8,17.0,29.42,NW,315,0.0,0.0,78,0.00,,---,0.00,VWS V13.01,2013-11-19 07:40:00,
2013-11-19 01:45:00,22.6,16.8,29.42,NW,315,0.0,0.0,78,0.00,,---,0.00,VWS V13.01,2013-11-19 07:45:00,
2013-11-19 01:50:00,22.6,16.8,29.42,NW,315,0.0,0.0,78,0.00,,---,0.00,VWS V13.01,2013-11-19 07:50:00,
2013-11-19 01:55:00,22.6,16.8,29.42,NW,315,0.0,0.0,78,0.00,,---,0.00,VWS V13.01,2013-11-19 07:55:00,
2013-11-19 02:00:00,22.6,16.8,29.42,NW,315,0.0,0.0,78,0.00,,---,0.00,VWS V13.01,2013-11-19 08:00:00,
2013-11-19 02:05:00,22.6,17.1,29.42,NW,315,0.0,0.0,79,0.00,,---,0.00,VWS V13.01,2013-11-19 08:05:00,
2013-11-19 02:10:00,22.6,17.1,29.41,NW,315,0.0,0.0,79,0.00,,---,0.00,VWS V13.01,2013-11-19 08:10:00,
2013-11-19 02:15:00,22.8,17.3,29.41,NW,315,0.0,0.0,79,0.00,,---,0.00,VWS V13.01,2013-11-19 08:15:00,
2013-11-19 02:20:00,22.8,17.3,29.41,NW,315,0.0,0.0,79,0.00,,---,0.00,VWS V13.01,2013-11-19 08:20:00,
2013-11-19 02:25:00,22.8,17.3,29.41,NW,315,0.0,0.0,79,0.00,,---,0.00,VWS V13.01,2013-11-19 08:25:00,
2013-11-19 02:30:00,22.8,17.3,29.41,NW,315,0.0,0.0,79,0.00,,---,0.00,VWS V13.01,2013-11-19 08:30:00,
2013-11-19 02:35:00,22.8,17.3,29.41,NW,315,0.0,0.0,79,0.00,,---,0.00,VWS V13.01,2013-11-19 08:35:00,
2013-11-19 02:40:00,22.8,17.3,29.41,NW,315,0.0,0.0,79,0.00,,---,0.00,VWS V13.01,2013-11-19 08:40:00,
2013-11-19 02:45:00,22.8,17.3,29.42,NW,315,0.0,0.0,79,0.00,,---,0.00,VWS V13.01,2013-11-19 08:45:00,
2013-11-19 02:50:00,22.8,17.3,29.42,NW,315,0.0,0.0,79,0.00,,---,0.00,VWS V13.01,2013-11-19 08:50:00,
2013-11-19 02:55:00,22.8,17.6,29.42,NW,315,0.0,0.0,80,0.00,,---,0.00,VWS V13.01,2013-11-19 08:55:00,
2013-11-19 03:00:00,22.8,17.6,29.42,NW,315,0.0,0.0,80,0.00,,---,0.00,VWS V13.01,2013-11-19 09:00:00,
2013-11-19 03:05:00,22.8,17.6,29.42,NW,315,0.0,0.0,80,0.00,,---,0.00,VWS V13.01,2013-11-19 09:05:00,
2013-11-19 03:10:00,22.6,17.4,29.41,NW,315,0.0,0.0,80,0.00,,---,0.00,VWS V13.01,2013-11-19 09:10:00,
2013-11-19 03:15:00,22.6,17.4,29.41,NW,315,0.0,0.0,80,0.00,,---,0.00,VWS V13.01,2013-11-19 09:15:00,
2013-11-19 03:20:00,22.6,17.4,29.42,NW,315,0.0,0.0,80,0.00,,---,0.00,VWS V13.01,2013-11-19 09:20:00,
2013-11-19 03:25:00,22.6,17.4,29.42,NW,315,0.0,0.0,80,0.00,,---,0.00,VWS V13.01,2013-11-19 09:25:00,
2013-11-19 03:30:00,22.4,17.2,29.42,NW,315,0.0,0.0,80,0.00,,---,0.00,VWS V13.01,2013-11-19 09:30:00,
2013-11-19 03:35:00,22.4,17.2,29.41,North,0,0.0,0.0,80,0.00,,---,0.00,VWS V13.01,2013-11-19 09:35:00,
2013-11-19 03:40:00,22.4,17.2,29.41,NW,315,0.0,0.0,80,0.00,,---,0.00,VWS V13.01,2013-11-19 09:40:00,
2013-11-19 03:46:00,22.4,17.2,29.41,NW,315,0.0,0.0,80,0.00,,---,0.00,VWS V13.01,2013-11-19 09:46:00,
2013-11-19 03:51:00,22.4,17.2,29.41,NW,315,0.0,0.0,80,0.00,,---,0.00,VWS V13.01,2013-11-19 09:51:00,
2013-11-19 03:56:00,22.6,17.4,29.41,NW,315,0.0,0.0,80,0.00,,---,0.00,VWS V13.01,2013-11-19 09:56:00,
2013-11-19 04:01:00,22.6,17.4,29.41,NW,315,0.0,0.0,80,0.00,,---,0.00,VWS V13.01,2013-11-19 10:01:00,
2013-11-19 04:06:00,22.8,17.6,29.41,NW,315,0.0,0.0,80,0.00,,---,0.00,VWS V13.01,2013-11-19 10:06:00,
2013-11-19 04:11:00,22.8,17.6,29.41,SSW,202,0.0,0.0,80,0.00,,---,0.00,VWS V13.01,2013-11-19 10:11:00,
2013-11-19 04:16:00,23.1,17.9,29.41,SSW,202,0.0,0.0,80,0.00,,---,0.00,VWS V13.01,2013-11-19 10:16:00,
2013-11-19 04:22:00,23.3,18.1,29.41,SSW,202,0.0,0.0,80,0.00,,---,0.00,VWS V13.01,2013-11-19 10:22:00,
2013-11-19 04:28:00,23.5,18.5,29.41,SE,135,0.0,0.0,81,0.00,,---,0.00,VWS V13.01,2013-11-19 10:28:00,
2013-11-19 04:33:00,23.5,18.5,29.41,SE,135,0.0,0.0,81,0.00,,---,0.00,VWS V13.01,2013-11-19 10:33:00,
2013-11-19 04:38:00,23.5,18.5,29.41,SE,135,0.0,0.0,81,0.00,,---,0.00,VWS V13.01,2013-11-19 10:38:00,
2013-11-19 04:43:00,23.5,18.5,29.41,SE,135,0.0,0.0,81,0.00,,---,0.00,VWS V13.01,2013-11-19 10:43:00,
2013-11-19 04:48:00,23.5,18.5,29.41,SE,135,0.0,0.0,81,0.00,,---,0.00,VWS V13.01,2013-11-19 10:48:00,
2013-11-19 04:53:00,23.5,18.5,29.41,SE,135,0.0,0.0,81,0.00,,---,0.00,VWS V13.01,2013-11-19 10:53:00,
2013-11-19 04:58:00,23.3,18.3,29.41,SE,135,0.0,0.0,81,0.00,,---,0.00,VWS V13.01,2013-11-19 10:58:00,
2013-11-19 05:03:00,23.3,18.3,29.41,SE,135,0.0,5.2,81,0.00,,---,0.00,VWS V13.01,2013-11-19 11:03:00,
2013-11-19 05:08:00,23.5,18.5,29.41,SE,135,0.0,0.0,81,0.00,,---,0.00,VWS V13.01,2013-11-19 11:08:00,
2013-11-19 05:14:00,23.5,18.5,29.40,SE,135,9.2,9.2,81,0.00,,---,0.00,VWS V13.01,2013-11-19 11:14:00,
2013-11-19 05:20:00,23.7,18.7,29.40,SE,135,0.0,0.0,81,0.00,,---,0.00,VWS V13.01,2013-11-19 11:20:00,
2013-11-19 05:25:00,23.7,18.7,29.40,SE,135,0.0,0.0,81,0.00,,---,0.00,VWS V13.01,2013-11-19 11:25:00,
2013-11-19 05:30:00,23.7,18.7,29.40,SE,135,0.0,0.0,81,0.00,,---,0.00,VWS V13.01,2013-11-19 11:30:00,
2013-11-19 05:35:00,23.7,18.7,29.40,SE,135,0.0,0.0,81,0.00,,---,0.00,VWS V13.01,2013-11-19 11:35:00,
2013-11-19 05:40:00,23.7,18.7,29.40,SE,135,0.0,4.8,81,0.00,,---,0.00,VWS V13.01,2013-11-19 11:40:00,
2013-11-19 05:45:00,23.9,18.9,29.40,SE,135,0.0,0.0,81,0.00,,---,0.00,VWS V13.01,2013-11-19 11:45:00,
2013-11-19 05:50:00,23.9,18.9,29.40,SE,135,0.0,0.0,81,0.00,,---,0.00,VWS V13.01,2013-11-19 11:50:00,
2013-11-19 05:55:00,23.9,18.9,29.40,SE,135,0.0,0.0,81,0.00,,---,0.00,VWS V13.01,2013-11-19 11:55:00,
2013-11-19 06:00:00,24.0,19.0,29.40,SE,135,0.0,0.0,81,0.00,,---,0.00,VWS V13.01,2013-11-19 12:00:00,
2013-11-19 06:05:00,24.0,19.0,29.39,SE,135,0.0,0.0,81,0.00,,---,0.00,VWS V13.01,2013-11-19 12:05:00,
2013-11-19 06:11:00,24.2,19.2,29.39,SE,135,0.0,0.0,81,0.00,,---,0.00,VWS V13.01,2013-11-19 12:11:00,
2013-11-19 06:16:00,24.4,19.4,29.40,SE,135,0.0,0.0,81,0.00,,---,0.00,VWS V13.01,2013-11-19 12:16:00,
2013-11-19 06:21:00,24.4,19.4,29.40,SE,135,0.0,0.0,81,0.00,,---,0.00,VWS V13.01,2013-11-19 12:21:00,
2013-11-19 06:27:00,24.4,19.4,29.40,SE,135,0.0,0.0,81,0.00,,---,0.00,VWS V13.01,2013-11-19 12:27:00,
2013-11-19 06:32:00,24.4,19.4,29.40,SE,135,0.0,0.0,81,0.00,,---,0.00,VWS V13.01,2013-11-19 12:32:00,
2013-11-19 06:37:00,24.4,19.4,29.39,SSE,158,0.0,0.0,81,0.00,,---,0.00,VWS V13.01,2013-11-19 12:37:00,
2013-11-19 06:42:00,24.4,19.4,29.40,SE,135,0.0,0.0,81,0.00,,---,0.00,VWS V13.01,2013-11-19 12:42:00,
2013-11-19 06:47:00,24.4,19.4,29.39,SE,135,0.0,0.0,81,0.00,,---,0.00,VWS V13.01,2013-11-19 12:47:00,
2013-11-19 06:52:00,24.4,19.4,29.39,SE,135,0.0,0.0,81,0.00,,---,0.00,VWS V13.01,2013-11-19 12:52:00,
2013-11-19 06:57:00,24.4,19.4,29.38,SE,135,3.0,3.0,81,0.00,,---,0.00,VWS V13.01,2013-11-19 12:57:00,
2013-11-19 07:02:00,24.4,19.4,29.38,SSE,158,14.2,14.2,81,0.00,,---,0.00,VWS V13.01,2013-11-19 13:02:00,
2013-11-19 07:07:00,24.4,19.4,29.38,SE,135,7.0,7.0,81,0.00,,---,0.00,VWS V13.01,2013-11-19 13:07:00,
2013-11-19 07:13:00,24.4,19.4,29.39,SSE,158,10.2,10.2,81,0.00,,---,0.00,VWS V13.01,2013-11-19 13:13:00,
2013-11-19 07:18:00,24.4,19.4,29.39,SE,135,3.0,3.0,81,0.00,,---,0.00,VWS V13.01,2013-11-19 13:18:00,
2013-11-19 07:23:00,24.4,19.4,29.39,SE,135,0.0,0.0,81,0.00,,---,0.00,VWS V13.01,2013-11-19 13:23:00,
2013-11-19 07:29:00,24.6,19.6,29.39,SSE,158,0.0,0.0,81,0.00,,---,0.00,VWS V13.01,2013-11-19 13:29:00,
2013-11-19 07:34:00,24.6,19.6,29.38,SSE,158,0.0,0.0,81,0.00,,---,0.00,VWS V13.01,2013-11-19 13:34:00,
2013-11-19 07:39:00,24.6,19.6,29.38,SE,135,0.0,0.0,81,0.00,,---,0.00,VWS V13.01,2013-11-19 13:39:00,
2013-11-19 07:44:00,24.6,19.6,29.38,SE,135,0.0,0.0,81,0.00,,---,0.00,VWS V13.01,2013-11-19 13:44:00,
2013-11-19 07:49:00,24.8,19.8,29.38,SE,135,0.0,0.0,81,0.00,,---,0.00,VWS V13.01,2013-11-19 13:49:00,
2013-11-19 07:54:00,24.9,19.9,29.38,SE,135,0.0,0.0,81,0.00,,---,0.00,VWS V13.01,2013-11-19 13:54:00,
2013-11-19 07:59:00,24.9,19.9,29.38,SSE,158,0.0,0.0,81,0.00,,---,0.00,VWS V13.01,2013-11-19 13:59:00,
2013-11-19 08:04:00,25.1,20.1,29.38,SSE,158,0.0,0.0,81,0.00,,---,0.00,VWS V13.01,2013-11-19 14:04:00,
2013-11-19 08:09:00,25.5,20.5,29.38,SE,135,0.0,0.0,81,0.00,,---,0.00,VWS V13.01,2013-11-19 14:09:00,
2013-11-19 08:14:00,25.7,20.7,29.38,SE,135,0.0,0.0,81,0.00,,---,0.00,VWS V13.01,2013-11-19 14:14:00,
2013-11-19 08:19:00,25.8,20.8,29.38,SE,135,0.0,0.0,81,0.00,,---,0.00,VWS V13.01,2013-11-19 14:19:00,
2013-11-19 08:24:00,26.2,21.2,29.38,SSE,158,0.0,0.0,81,0.00,,---,0.00,VWS V13.01,2013-11-19 14:24:00,
2013-11-19 08:29:00,26.6,21.6,29.38,SSE,158,6.6,6.6,81,0.00,,---,0.00,VWS V13.01,2013-11-19 14:29:00,
2013-11-19 08:32:00,26.6,21.6,29.38,SE,135,0.0,0.0,81,0.00,,---,0.00,VWS V13.01,2013-11-19 14:32:00,
2013-11-19 08:37:00,26.9,21.9,29.38,SE,135,12.0,12.0,81,0.00,,---,0.00,VWS V13.01,2013-11-19 14:37:00,
2013-11-19 08:42:00,27.3,22.2,29.37,SSE,158,0.0,0.0,81,0.00,,---,0.00,VWS V13.01,2013-11-19 14:42:00,
2013-11-19 08:47:00,27.6,22.5,29.38,SE,135,0.0,0.0,81,0.00,,---,0.00,VWS V13.01,2013-11-19 14:47:00,
2013-11-19 08:52:00,28.0,22.9,29.38,SSE,158,14.6,14.6,81,0.00,,---,0.00,VWS V13.01,2013-11-19 14:52:00,
2013-11-19 08:57:00,28.5,23.1,29.37,SE,135,0.0,0.0,80,0.00,,---,0.00,VWS V13.01,2013-11-19 14:57:00,
2013-11-19 09:02:00,28.7,23.3,29.37,SE,135,22.2,22.2,80,0.00,,---,0.00,VWS V13.01,2013-11-19 15:02:00,
2013-11-19 09:07:00,28.9,23.5,29.37,SE,135,3.4,3.4,80,0.00,,---,0.00,VWS V13.01,2013-11-19 15:07:00,
2013-11-19 09:12:00,29.4,24.0,29.37,SSE,158,0.0,10.6,80,0.00,,---,0.00,VWS V13.01,2013-11-19 15:12:00,
2013-11-19 09:17:00,29.8,24.1,29.37,SE,135,5.8,5.8,79,0.00,,---,0.00,VWS V13.01,2013-11-19 15:17:00,
2013-11-19 09:22:00,30.0,24.3,29.38,East,90,11.6,11.6,79,0.00,,---,0.00,VWS V13.01,2013-11-19 15:22:00,
2013-11-19 09:27:00,30.5,24.8,29.38,SE,135,11.6,11.6,79,0.00,,---,0.00,VWS V13.01,2013-11-19 15:27:00,
2013-11-19 09:32:00,30.7,24.7,29.38,SSE,158,0.0,0.0,78,0.00,,---,0.00,VWS V13.01,2013-11-19 15:32:00,
2013-11-19 09:37:00,31.1,25.0,29.37,ESE,112,15.6,15.6,78,0.00,,---,0.00,VWS V13.01,2013-11-19 15:37:00,
2013-11-19 09:42:00,31.6,25.5,29.37,SSE,158,13.8,13.8,78,0.00,,---,0.00,VWS V13.01,2013-11-19 15:42:00,
2013-11-19 09:47:00,31.8,25.7,29.37,ESE,112,16.0,16.0,78,0.00,,---,0.00,VWS V13.01,2013-11-19 15:47:00,
2013-11-19 09:52:00,32.1,26.0,29.37,SSE,158,0.0,0.0,78,0.00,,---,0.00,VWS V13.01,2013-11-19 15:52:00,
2013-11-19 09:57:00,32.7,26.6,29.36,SE,135,14.2,14.2,78,0.00,,---,0.00,VWS V13.01,2013-11-19 15:57:00,
2013-11-19 10:02:00,33.0,26.6,29.37,ESE,112,0.0,0.0,77,0.00,,---,0.00,VWS V13.01,2013-11-19 16:02:00,
2013-11-19 10:07:00,33.4,26.7,29.37,SE,135,12.4,12.4,76,0.00,,---,0.00,VWS V13.01,2013-11-19 16:07:00,
2013-11-19 10:12:00,33.8,27.0,29.37,SE,135,19.2,19.2,76,0.00,,---,0.00,VWS V13.01,2013-11-19 16:12:00,
2013-11-19 10:17:00,34.3,27.5,29.37,ESE,112,4.8,4.8,76,0.00,,---,0.00,VWS V13.01,2013-11-19 16:17:00,
2013-11-19 10:22:00,34.3,27.2,29.37,SE,135,1.6,1.6,75,0.00,,---,0.00,VWS V13.01,2013-11-19 16:22:00,
2013-11-19 10:27:00,34.8,27.7,29.37,SE,135,0.0,9.8,75,0.00,,---,0.00,VWS V13.01,2013-11-19 16:27:00,
2013-11-19 10:32:00,35.4,28.0,29.36,SE,135,2.6,2.6,74,0.00,,---,0.00,VWS V13.01,2013-11-19 16:32:00,
2013-11-19 10:37:00,35.6,28.1,29.36,SSE,158,0.0,0.0,74,0.00,,---,0.00,VWS V13.01,2013-11-19 16:37:00,
2013-11-19 10:42:00,36.1,28.3,29.36,South,180,6.2,6.2,73,0.00,,---,0.00,VWS V13.01,2013-11-19 16:42:00,
2013-11-19 10:47:00,36.5,28.4,29.36,SE,135,14.6,14.6,72,0.00,,---,0.00,VWS V13.01,2013-11-19 16:47:00,
2013-11-19 10:52:00,36.8,28.6,29.36,SE,135,5.2,5.2,72,0.00,,---,0.00,VWS V13.01,2013-11-19 16:52:00,
2013-11-19 10:57:00,37.4,28.9,29.35,SSE,158,0.0,29.8,71,0.00,,---,0.00,VWS V13.01,2013-11-19 16:57:00,
2013-11-19 11:02:00,37.7,29.2,29.35,SE,135,0.0,0.0,71,0.00,,---,0.00,VWS V13.01,2013-11-19 17:02:00,
2013-11-19 11:07:00,38.1,29.2,29.35,SE,135,0.0,0.0,70,0.00,,---,0.00,VWS V13.01,2013-11-19 17:07:00,
2013-11-19 11:12:00,38.4,29.1,29.34,SE,135,1.6,1.6,69,0.00,,---,0.00,VWS V13.01,2013-11-19 17:12:00,
2013-11-19 11:17:00,39.0,29.0,29.34,SSE,158,0.0,0.0,67,0.00,,---,0.00,VWS V13.01,2013-11-19 17:17:00,
2013-11-19 11:22:00,39.2,28.8,29.34,SE,135,17.8,17.8,66,0.00,,---,0.00,VWS V13.01,2013-11-19 17:22:00,
2013-11-19 11:27:00,39.7,29.3,29.33,SE,135,0.0,10.2,66,0.00,,---,0.00,VWS V13.01,2013-11-19 17:27:00,
2013-11-19 11:32:00,39.9,29.1,29.33,ESE,112,2.6,2.6,65,0.00,,---,0.00,VWS V13.01,2013-11-19 17:32:00,
2013-11-19 11:36:00,40.2,29.0,29.33,SSE,158,0.0,0.0,64,0.00,,---,0.00,VWS V13.01,2013-11-19 17:36:00,
2013-11-19 11:41:00,40.4,29.2,29.33,ESE,112,0.0,0.0,64,0.00,,---,0.00,VWS V13.01,2013-11-19 17:41:00,
2013-11-19 11:46:00,41.1,29.9,29.32,SE,135,0.0,0.0,64,0.00,,---,0.00,VWS V13.01,2013-11-19 17:46:00,
2013-11-19 11:51:00,41.3,29.7,29.32,SE,135,0.4,0.4,63,0.00,,---,0.00,VWS V13.01,2013-11-19 17:51:00,
2013-11-19 11:56:00,41.5,29.5,29.32,SE,135,0.0,0.0,62,0.00,,---,0.00,VWS V13.01,2013-11-19 17:56:00,
2013-11-19 12:01:00,41.9,29.9,29.31,SE,135,0.0,0.0,62,0.00,,---,0.00,VWS V13.01,2013-11-19 18:01:00,
2013-11-19 12:06:00,42.0,29.9,29.31,SSE,158,0.0,0.0,62,0.00,,---,0.00,VWS V13.01,2013-11-19 18:06:00,
2013-11-19 12:11:00,42.2,29.7,29.31,SE,135,0.4,0.4,61,0.00,,---,0.00,VWS V13.01,2013-11-19 18:11:00,
2013-11-19 12:16:00,42.6,30.1,29.31,SSW,202,0.0,0.0,61,0.00,,---,0.00,VWS V13.01,2013-11-19 18:16:00,
2013-11-19 12:21:00,42.9,30.0,29.30,SE,135,0.0,0.0,60,0.00,,---,0.00,VWS V13.01,2013-11-19 18:21:00,
2013-11-19 12:26:00,43.3,30.4,29.31,SSE,158,0.0,0.0,60,0.00,,---,0.00,VWS V13.01,2013-11-19 18:26:00,
2013-11-19 12:31:00,43.7,30.3,29.30,SE,135,0.0,0.0,59,0.00,,---,0.00,VWS V13.01,2013-11-19 18:31:00,
2013-11-19 12:36:00,43.7,30.3,29.30,SE,135,0.0,0.0,59,0.00,,---,0.00,VWS V13.01,2013-11-19 18:36:00,
2013-11-19 12:41:00,43.8,30.0,29.30,SE,135,0.0,0.0,58,0.00,,---,0.00,VWS V13.01,2013-11-19 18:41:00,
2013-11-19 12:46:00,44.2,30.4,29.30,SSE,158,0.0,0.0,58,0.00,,---,0.00,VWS V13.01,2013-11-19 18:46:00,
2013-11-19 12:51:00,44.4,30.6,29.29,SSE,158,0.0,0.0,58,0.00,,---,0.00,VWS V13.01,2013-11-19 18:51:00,
2013-11-19 12:56:00,44.7,30.9,29.29,SSE,158,0.0,0.0,58,0.00,,---,0.00,VWS V13.01,2013-11-19 18:56:00,
2013-11-19 13:01:00,44.9,30.6,29.29,SSE,158,7.6,7.6,57,0.00,,---,0.00,VWS V13.01,2013-11-19 19:01:00,
2013-11-19 13:06:00,45.1,30.4,29.28,SSE,158,0.0,0.0,56,0.00,,---,0.00,VWS V13.01,2013-11-19 19:06:00,
2013-11-19 13:10:00,45.1,30.4,29.29,SE,135,1.2,1.2,56,0.00,,---,0.00,VWS V13.01,2013-11-19 19:10:00,
2013-11-19 13:16:00,45.3,30.1,29.28,SE,135,0.0,0.0,55,0.00,,---,0.00,VWS V13.01,2013-11-19 19:16:00,
2013-11-19 13:21:00,45.3,30.1,29.28,SSE,158,0.0,0.0,55,0.00,,---,0.00,VWS V13.01,2013-11-19 19:21:00,
2013-11-19 13:26:00,45.3,30.1,29.27,SE,135,0.0,0.0,55,0.00,,---,0.00,VWS V13.01,2013-11-19 19:26:00,
2013-11-19 13:31:00,45.5,30.3,29.27,ESE,112,0.0,0.0,55,0.00,,---,0.00,VWS V13.01,2013-11-19 19:31:00,
2013-11-19 13:36:00,46.0,31.2,29.27,SSE,158,0.0,0.0,56,0.00,,---,0.00,VWS V13.01,2013-11-19 19:36:00,
2013-11-19 13:41:00,46.0,30.8,29.27,SE,135,17.8,17.8,55,0.00,,---,0.00,VWS V13.01,2013-11-19 19:41:00,
2013-11-19 13:46:00,46.2,30.9,29.26,SE,135,0.0,0.0,55,0.00,,---,0.00,VWS V13.01,2013-11-19 19:46:00,
2013-11-19 13:51:00,46.2,30.5,29.26,SE,135,0.0,0.0,54,0.00,,---,0.00,VWS V13.01,2013-11-19 19:51:00,
2013-11-19 13:56:00,46.2,30.5,29.26,SSE,158,0.0,0.0,54,0.00,,---,0.00,VWS V13.01,2013-11-19 19:56:00,
2013-11-19 14:01:00,46.5,30.8,29.25,ESE,112,0.0,0.0,54,0.00,,---,0.00,VWS V13.01,2013-11-19 20:01:00,
2013-11-19 14:06:00,46.5,30.8,29.26,ESE,112,0.0,0.0,54,0.00,,---,0.00,VWS V13.01,2013-11-19 20:06:00,
2013-11-19 14:11:00,46.7,31.0,29.25,SE,135,0.0,0.0,54,0.00,,---,0.00,VWS V13.01,2013-11-19 20:11:00,
2013-11-19 14:16:00,46.9,30.7,29.25,SSE,158,0.0,0.0,53,0.00,,---,0.00,VWS V13.01,2013-11-19 20:16:00,
2013-11-19 14:21:00,46.7,30.5,29.25,SE,135,0.0,0.0,53,0.00,,---,0.00,VWS V13.01,2013-11-19 20:21:00,
2013-11-19 14:26:00,46.7,30.5,29.24,SE,135,0.0,0.0,53,0.00,,---,0.00,VWS V13.01,2013-11-19 20:26:00,
2013-11-19 14:31:00,46.5,30.3,29.24,SE,135,0.0,0.0,53,0.00,,---,0.00,VWS V13.01,2013-11-19 20:31:00,
2013-11-19 14:36:00,46.7,30.5,29.23,SE,135,0.0,0.0,53,0.00,,---,0.00,VWS V13.01,2013-11-19 20:36:00,
2013-11-19 14:41:00,46.7,30.5,29.23,SSE,158,0.0,0.0,53,0.00,,---,0.00,VWS V13.01,2013-11-19 20:41:00,
2013-11-19 14:46:00,46.7,30.5,29.23,SSE,158,0.0,0.0,53,0.00,,---,0.00,VWS V13.01,2013-11-19 20:46:00,
2013-11-19 14:51:00,46.5,30.3,29.23,SE,135,0.0,0.0,53,0.00,,---,0.00,VWS V13.01,2013-11-19 20:51:00,
2013-11-19 14:56:00,46.5,30.3,29.23,South,180,0.0,0.0,53,0.00,,---,0.00,VWS V13.01,2013-11-19 20:56:00,
2013-11-19 15:01:00,46.5,30.3,29.22,SSE,158,0.0,0.0,53,0.00,,---,0.00,VWS V13.01,2013-11-19 21:01:00,
2013-11-19 15:06:00,46.5,30.8,29.22,SSE,158,0.0,0.0,54,0.00,,---,0.00,VWS V13.01,2013-11-19 21:06:00,
2013-11-19 15:11:00,46.2,30.5,29.22,ESE,112,0.0,0.0,54,0.00,,---,0.00,VWS V13.01,2013-11-19 21:11:00,
2013-11-19 15:16:00,46.2,30.5,29.22,SE,135,0.0,0.0,54,0.00,,---,0.00,VWS V13.01,2013-11-19 21:16:00,
2013-11-19 15:21:00,46.0,29.8,29.23,SE,135,0.0,0.0,53,0.00,,---,0.00,VWS V13.01,2013-11-19 21:21:00,
2013-11-19 15:26:00,45.6,29.9,29.22,SSE,158,0.0,0.0,54,0.00,,---,0.00,VWS V13.01,2013-11-19 21:26:00,
2013-11-19 15:31:00,45.3,30.1,29.22,SSE,158,0.0,0.0,55,0.00,,---,0.00,VWS V13.01,2013-11-19 21:31:00,
2013-11-19 15:36:00,45.3,30.1,29.22,SSE,158,0.0,0.0,55,0.00,,---,0.00,VWS V13.01,2013-11-19 21:36:00,
2013-11-19 15:41:00,45.1,29.9,29.22,SE,135,0.0,0.0,55,0.00,,---,0.00,VWS V13.01,2013-11-19 21:41:00,
2013-11-19 15:46:00,44.7,29.5,29.22,SE,135,0.0,0.0,55,0.00,,---,0.00,VWS V13.01,2013-11-19 21:46:00,
2013-11-19 15:51:00,44.6,29.9,29.22,SE,135,0.0,0.0,56,0.00,,---,0.00,VWS V13.01,2013-11-19 21:51:00,
2013-11-19 15:56:00,44.4,29.7,29.22,SE,135,0.0,0.0,56,0.00,,---,0.00,VWS V13.01,2013-11-19 21:56:00,
2013-11-19 16:01:00,44.0,29.8,29.22,SE,135,0.0,0.0,57,0.00,,---,0.00,VWS V13.01,2013-11-19 22:01:00,
2013-11-19 16:06:00,43.8,29.6,29.22,ESE,112,2.2,2.2,57,0.00,,---,0.00,VWS V13.01,2013-11-19 22:06:00,
2013-11-19 16:11:00,43.7,29.5,29.22,SE,135,0.0,0.0,57,0.00,,---,0.00,VWS V13.01,2013-11-19 22:11:00,
2013-11-19 16:16:00,43.3,29.5,29.22,SE,135,0.0,0.0,58,0.00,,---,0.00,VWS V13.01,2013-11-19 22:16:00,
2013-11-19 16:21:00,43.1,29.3,29.21,SE,135,0.0,0.0,58,0.00,,---,0.00,VWS V13.01,2013-11-19 22:21:00,
2013-11-19 16:26:00,42.6,28.9,29.21,SE,135,0.0,0.0,58,0.00,,---,0.00,VWS V13.01,2013-11-19 22:26:00,
2013-11-19 16:31:00,42.4,29.1,29.21,SE,135,0.0,0.4,59,0.00,,---,0.00,VWS V13.01,2013-11-19 22:31:00,
2013-11-19 16:36:00,42.0,28.7,29.22,SE,135,0.0,0.0,59,0.00,,---,0.00,VWS V13.01,2013-11-19 22:36:00,
2013-11-19 16:41:00,41.7,28.9,29.21,SSE,158,0.0,0.0,60,0.00,,---,0.00,VWS V13.01,2013-11-19 22:41:00,
2013-11-19 16:46:00,41.5,29.1,29.21,SSE,158,0.0,0.0,61,0.00,,---,0.00,VWS V13.01,2013-11-19 22:46:00,
2013-11-19 16:51:00,41.3,28.9,29.21,SE,135,0.0,0.0,61,0.00,,---,0.00,VWS V13.01,2013-11-19 22:51:00,
2013-11-19 16:56:00,41.1,28.7,29.22,South,180,0.0,0.0,61,0.00,,---,0.00,VWS V13.01,2013-11-19 22:56:00,
2013-11-19 17:01:00,40.8,28.8,29.22,SSE,158,0.0,0.0,62,0.00,,---,0.00,VWS V13.01,2013-11-19 23:01:00,
2013-11-19 17:06:00,40.6,28.6,29.22,ESE,112,12.8,12.8,62,0.00,,---,0.00,VWS V13.01,2013-11-19 23:06:00,
2013-11-19 17:11:00,40.4,28.8,29.21,SE,135,9.2,10.2,63,0.00,,---,0.00,VWS V13.01,2013-11-19 23:11:00,
2013-11-19 17:16:00,40.1,28.5,29.22,SE,135,0.0,0.0,63,0.00,,---,0.00,VWS V13.01,2013-11-19 23:16:00,
2013-11-19 17:21:00,39.9,28.7,29.21,SE,135,13.8,13.8,64,0.00,,---,0.00,VWS V13.01,2013-11-19 23:21:00,
2013-11-19 17:26:00,39.9,28.7,29.21,SE,135,0.0,0.0,64,0.00,,---,0.00,VWS V13.01,2013-11-19 23:26:00,
2013-11-19 17:31:00,39.5,28.7,29.21,SSE,158,0.0,0.0,65,0.00,,---,0.00,VWS V13.01,2013-11-19 23:31:00,
2013-11-19 17:36:00,39.5,28.7,29.21,SE,135,8.4,8.4,65,0.00,,---,0.00,VWS V13.01,2013-11-19 23:36:00,
2013-11-19 17:41:00,39.3,28.9,29.21,SE,135,0.0,0.0,66,0.00,,---,0.00,VWS V13.01,2013-11-19 23:41:00,
2013-11-19 17:46:00,39.3,28.9,29.21,SE,135,0.0,0.0,66,0.00,,---,0.00,VWS V13.01,2013-11-19 23:46:00,
2013-11-19 17:51:00,39.0,29.0,29.21,SE,135,0.0,0.0,67,0.00,,---,0.00,VWS V13.01,2013-11-19 23:51:00,
2013-11-19 17:56:00,39.0,29.0,29.21,SE,135,2.6,2.6,67,0.00,,---,0.00,VWS V13.01,2013-11-19 23:56:00,
2013-11-19 18:01:00,38.8,28.8,29.21,ESE,112,0.0,0.0,67,0.00,,---,0.00,VWS V13.01,2013-11-20 00:01:00,
2013-11-19 18:06:00,38.4,28.4,29.21,SE,135,0.8,0.8,67,0.00,,---,0.00,VWS V13.01,2013-11-20 00:06:00,
2013-11-19 18:11:00,38.4,28.4,29.21,SE,135,0.0,4.4,67,0.00,,---,0.00,VWS V13.01,2013-11-20 00:11:00,
2013-11-19 18:16:00,38.3,28.7,29.21,SSE,158,0.8,0.8,68,0.00,,---,0.00,VWS V13.01,2013-11-20 00:16:00,
2013-11-19 18:21:00,38.3,28.7,29.21,SE,135,0.0,0.0,68,0.00,,---,0.00,VWS V13.01,2013-11-20 00:21:00,
2013-11-19 18:27:00,38.1,28.8,29.21,SSE,158,0.0,0.0,69,0.00,,---,0.00,VWS V13.01,2013-11-20 00:27:00,
2013-11-19 18:32:00,38.1,28.8,29.21,SE,135,0.0,0.0,69,0.00,,---,0.00,VWS V13.01,2013-11-20 00:32:00,
2013-11-19 18:37:00,38.1,28.8,29.22,SE,135,5.2,5.2,69,0.00,,---,0.00,VWS V13.01,2013-11-20 00:37:00,
2013-11-19 18:42:00,38.1,28.8,29.22,SE,135,4.0,4.0,69,0.00,,---,0.00,VWS V13.01,2013-11-20 00:42:00,
2013-11-19 18:47:00,38.1,28.8,29.22,SE,135,0.0,0.0,69,0.00,,---,0.00,VWS V13.01,2013-11-20 00:47:00,
2013-11-19 18:52:00,38.1,28.8,29.21,ESE,112,12.8,12.8,69,0.00,,---,0.00,VWS V13.01,2013-11-20 00:52:00,
2013-11-19 18:57:00,38.1,28.8,29.22,SE,135,0.0,0.0,69,0.00,,---,0.00,VWS V13.01,2013-11-20 00:57:00,
2013-11-19 19:02:00,38.1,28.8,29.21,SE,135,0.0,0.0,69,0.00,,---,0.00,VWS V13.01,2013-11-20 01:02:00,
2013-11-19 19:07:00,38.1,28.8,29.21,SE,135,9.2,9.2,69,0.00,,---,0.00,VWS V13.01,2013-11-20 01:07:00,
2013-11-19 19:12:00,38.1,28.8,29.21,SE,135,12.0,12.0,69,0.00,,---,0.00,VWS V13.01,2013-11-20 01:12:00,
2013-11-19 19:18:00,38.3,29.0,29.21,SE,135,0.0,0.0,69,0.00,,---,0.00,VWS V13.01,2013-11-20 01:18:00,
2013-11-19 19:23:00,38.4,29.1,29.21,SSE,158,0.0,0.0,69,0.00,,---,0.00,VWS V13.01,2013-11-20 01:23:00,
2013-11-19 19:28:00,38.4,29.1,29.22,SE,135,0.0,0.0,69,0.00,,---,0.00,VWS V13.01,2013-11-20 01:28:00,
2013-11-19 19:33:00,38.4,29.1,29.21,SE,135,0.0,0.0,69,0.00,,---,0.00,VWS V13.01,2013-11-20 01:33:00,
2013-11-19 19:38:00,38.4,29.1,29.21,SE,135,0.0,0.0,69,0.00,,---,0.00,VWS V13.01,2013-11-20 01:38:00,
2013-11-19 19:43:00,38.4,29.1,29.21,SE,135,0.0,2.2,69,0.00,,---,0.00,VWS V13.01,2013-11-20 01:43:00,
2013-11-19 19:48:00,38.4,29.1,29.21,SE,135,14.2,14.2,69,0.00,,---,0.00,VWS V13.01,2013-11-20 01:48:00,
2013-11-19 19:53:00,38.4,29.1,29.21,SE,135,26.2,26.2,69,0.00,,---,0.00,VWS V13.01,2013-11-20 01:53:00,
2013-11-19 19:58:00,38.4,29.1,29.20,SSE,158,0.0,0.0,69,0.00,,---,0.00,VWS V13.01,2013-11-20 01:58:00,
2013-11-19 20:04:00,38.4,29.1,29.20,SE,135,0.0,0.0,69,0.00,,---,0.00,VWS V13.01,2013-11-20 02:04:00,
2013-11-19 20:09:00,38.4,29.1,29.20,SE,135,0.0,0.0,69,0.00,,---,0.00,VWS V13.01,2013-11-20 02:09:00,
2013-11-19 20:14:00,38.4,29.1,29.20,SE,135,0.0,0.0,69,0.00,,---,0.00,VWS V13.01,2013-11-20 02:14:00,
2013-11-19 20:19:00,38.4,29.1,29.20,East,90,0.0,0.0,69,0.00,,---,0.00,VWS V13.01,2013-11-20 02:19:00,
2013-11-19 20:24:00,38.4,29.1,29.20,SE,135,0.0,0.0,69,0.00,,---,0.00,VWS V13.01,2013-11-20 02:24:00,
2013-11-19 20:29:00,38.4,29.1,29.20,SE,135,1.6,1.6,69,0.00,,---,0.00,VWS V13.01,2013-11-20 02:29:00,
2013-11-19 20:34:00,38.4,29.1,29.20,SE,135,0.0,0.0,69,0.00,,---,0.00,VWS V13.01,2013-11-20 02:34:00,
2013-11-19 20:39:00,38.4,29.1,29.21,SE,135,0.0,0.0,69,0.00,,---,0.00,VWS V13.01,2013-11-20 02:39:00,
2013-11-19 20:44:00,38.3,29.0,29.20,SE,135,0.0,0.0,69,0.00,,---,0.00,VWS V13.01,2013-11-20 02:44:00,
2013-11-19 20:50:00,38.3,29.0,29.21,SE,135,0.0,0.0,69,0.00,,---,0.00,VWS V13.01,2013-11-20 02:50:00,
2013-11-19 20:55:00,38.3,29.0,29.20,SE,135,0.0,0.0,69,0.00,,---,0.00,VWS V13.01,2013-11-20 02:55:00,
2013-11-19 21:00:00,38.3,29.0,29.20,SSE,158,0.0,0.0,69,0.00,,---,0.00,VWS V13.01,2013-11-20 03:00:00,
2013-11-19 21:05:00,38.4,29.1,29.20,ESE,112,24.0,24.0,69,0.00,,---,0.00,VWS V13.01,2013-11-20 03:05:00,
2013-11-19 21:10:00,38.4,29.1,29.20,SSE,158,0.0,0.0,69,0.00,,---,0.00,VWS V13.01,2013-11-20 03:10:00,
2013-11-19 21:16:00,38.4,29.1,29.20,ESE,112,0.0,0.0,69,0.00,,---,0.00,VWS V13.01,2013-11-20 03:16:00,
2013-11-19 21:21:00,38.4,28.8,29.20,SE,135,0.0,0.0,68,0.00,,---,0.00,VWS V13.01,2013-11-20 03:21:00,
2013-11-19 21:26:00,38.4,28.8,29.20,SSE,158,0.0,0.0,68,0.00,,---,0.00,VWS V13.01,2013-11-20 03:26:00,
2013-11-19 21:31:00,38.8,29.2,29.20,SE,135,0.0,0.0,68,0.00,,---,0.00,VWS V13.01,2013-11-20 03:31:00,
2013-11-19 21:36:00,38.6,29.0,29.20,ESE,112,0.0,0.0,68,0.00,,---,0.00,VWS V13.01,2013-11-20 03:36:00,
2013-11-19 21:41:00,38.6,29.0,29.20,SE,135,0.0,0.0,68,0.00,,---,0.00,VWS V13.01,2013-11-20 03:41:00,
2013-11-19 21:46:00,38.6,29.0,29.20,SE,135,0.0,0.0,68,0.00,,---,0.00,VWS V13.01,2013-11-20 03:46:00,
2013-11-19 21:51:00,38.4,28.8,29.20,SE,135,0.0,0.0,68,0.00,,---,0.00,VWS V13.01,2013-11-20 03:51:00,
2013-11-19 21:56:00,38.4,28.8,29.20,SSE,158,0.0,0.0,68,0.00,,---,0.00,VWS V13.01,2013-11-20 03:56:00,
2013-11-19 22:01:00,38.4,28.8,29.20,SSE,158,0.0,0.0,68,0.00,,---,0.00,VWS V13.01,2013-11-20 04:01:00,
2013-11-19 22:06:00,38.4,28.4,29.20,SE,135,0.0,0.0,67,0.00,,---,0.00,VWS V13.01,2013-11-20 04:06:00,
2013-11-19 22:11:00,38.4,28.4,29.20,SSE,158,0.0,0.0,67,0.00,,---,0.00,VWS V13.01,2013-11-20 04:11:00,
2013-11-19 22:16:00,38.4,28.4,29.20,SE,135,0.0,0.0,67,0.00,,---,0.00,VWS V13.01,2013-11-20 04:16:00,
2013-11-19 22:21:00,38.4,28.4,29.20,SE,135,0.0,0.0,67,0.00,,---,0.00,VWS V13.01,2013-11-20 04:21:00,
2013-11-19 22:26:00,38.4,28.4,29.20,SE,135,0.0,0.0,67,0.00,,---,0.00,VWS V13.01,2013-11-20 04:26:00,
2013-11-19 22:31:00,38.6,28.6,29.20,SSE,158,0.0,0.0,67,0.00,,---,0.00,VWS V13.01,2013-11-20 04:31:00,
2013-11-19 22:36:00,38.8,28.4,29.20,SSE,158,0.0,0.0,66,0.00,,---,0.00,VWS V13.01,2013-11-20 04:36:00,
2013-11-19 22:41:00,38.8,28.4,29.19,SE,135,0.0,0.0,66,0.00,,---,0.00,VWS V13.01,2013-11-20 04:41:00,
2013-11-19 22:46:00,39.0,28.6,29.19,SE,135,0.0,3.4,66,0.00,,---,0.00,VWS V13.01,2013-11-20 04:46:00,
2013-11-19 22:51:00,39.0,28.2,29.19,SE,135,0.0,0.0,65,0.00,,---,0.00,VWS V13.01,2013-11-20 04:51:00,
2013-11-19 22:56:00,39.2,28.1,29.19,SSE,158,0.0,0.0,64,0.00,,---,0.00,VWS V13.01,2013-11-20 04:56:00,
2013-11-19 23:01:00,39.3,28.2,29.19,SE,135,0.0,0.0,64,0.00,,---,0.00,VWS V13.01,2013-11-20 05:01:00,
2013-11-19 23:03:00,39.3,28.2,29.19,ESE,112,0.0,0.0,64,0.00,,---,0.00,VWS V13.01,2013-11-20 05:03:00,
2013-11-19 23:04:00,39.3,28.2,29.19,ESE,112,0.0,0.0,64,0.00,,---,0.00,VWS V13.01,2013-11-20 05:04:00,
2013-11-19 23:09:00,39.3,27.8,29.19,SE,135,0.0,0.0,63,0.00,,---,0.00,VWS V13.01,2013-11-20 05:09:00,
2013-11-19 23:10:00,39.3,27.8,29.18,SE,135,0.0,0.0,63,0.00,,---,0.00,VWS V13.01,2013-11-20 05:10:00,
2013-11-19 23:15:00,39.3,27.8,29.19,SSE,158,0.0,0.0,63,0.00,,---,0.00,VWS V13.01,2013-11-20 05:15:00,
2013-11-19 23:20:00,39.5,27.6,29.19,South,180,0.0,0.0,62,0.00,,---,0.00,VWS V13.01,2013-11-20 05:20:00,
2013-11-19 23:25:00,39.5,27.6,29.18,SSE,158,0.0,0.0,62,0.00,,---,0.00,VWS V13.01,2013-11-20 05:25:00,
2013-11-19 23:31:00,39.7,27.4,29.18,SSW,202,0.0,0.0,61,0.00,,---,0.00,VWS V13.01,2013-11-20 05:31:00,
2013-11-19 23:36:00,39.9,27.2,29.18,SSE,158,0.0,0.0,60,0.00,,---,0.00,VWS V13.01,2013-11-20 05:36:00,
2013-11-19 23:41:00,39.9,27.2,29.18,ESE,112,0.8,0.8,60,0.00,,---,0.00,VWS V13.01,2013-11-20 05:41:00,
2013-11-19 23:46:00,39.9,26.8,29.18,SE,135,0.0,0.0,59,0.00,,---,0.00,VWS V13.01,2013-11-20 05:46:00,
2013-11-19 23:51:00,39.9,26.8,29.18,SE,135,0.0,0.0,59,0.00,,---,0.00,VWS V13.01,2013-11-20 05:51:00,
2013-11-19 23:56:00,40.1,26.5,29.18,SE,135,0.0,0.0,58,0.00,,---,0.00,VWS V13.01,2013-11-20 05:56:00,